Date,TemperatureHighF,TemperatureAvgF,TemperatureLowF,DewpointHighF,DewpointAvgF,DewpointLowF,HumidityHigh,HumidityAvg,HumidityLow,PressureMaxIn,PressureMinIn,WindSpeedMaxMPH,WindSpeedAvgMPH,GustSpeedMaxMPH,PrecipitationSumIn
2013-1-1,34.7,28.0,17.8,34.1,26.6,15.6,98,94,87,30.33,30.10,14,3,14,0.01
2013-1-2,36.2,22.5,12.1,24.5,16.6,10.1,96,80,40,30.36,30.26,9,1,9,0.01
2013-1-3,42.4,27.2,16.8,29.9,22.0,14.6,97,82,52,30.50,30.34,10,1,10,0.00
2013-1-4,46.1,30.2,17.2,27.2,22.9,15.2,96,77,43,30.54,30.40,13,1,13,0.00
2013-1-5,41.7,32.8,21.9,33.6,27.9,19.8,95,83,67,30.41,30.23,12,1,12,0.00
2013-1-6,41.7,30.4,19.3,30.6,24.0,16.8,96,79,47,30.44,30.26,14,2,14,0.00
2013-1-7,49.8,32.9,18.5,28.3,23.6,16.3,92,71,41,30.44,30.20,18,2,18,0.00
2013-1-8,54.9,41.5,24.7,44.3,33.1,21.7,96,73,50,30.26,30.11,12,2,12,0.27
2013-1-9,55.7,48.0,42.8,45.4,41.5,34.5,98,80,55,30.42,30.26,17,3,17,0.04
2013-1-10,52.6,47.6,41.9,51.8,45.6,34.4,99,93,57,30.33,29.85,25,5,25,0.36
2013-1-11,63.3,53.5,44.2,50.3,47.1,43.0,98,80,61,29.91,29.76,22,4,22,0.00
2013-1-12,52.7,42.3,29.0,48.4,37.8,27.1,94,85,57,30.00,29.83,22,5,22,0.30
2013-1-13,28.8,22.0,13.7,27.3,19.3,11.2,94,89,84,30.44,29.95,17,5,17,0.00
2013-1-14,30.1,19.8,11.7,21.8,15.1,9.3,92,82,62,30.59,30.43,13,2,13,0.01
2013-1-15,32.5,22.9,16.6,20.7,16.4,12.5,90,77,48,30.45,30.25,10,2,10,0.00
2013-1-16,42.7,26.1,12.3,24.4,18.6,9.9,95,76,44,30.28,30.17,15,1,15,0.01
2013-1-17,44.7,30.8,21.6,32.9,25.2,19.3,94,81,51,30.56,30.26,17,2,17,0.00
2013-1-18,57.2,37.9,20.6,32.2,25.2,18.8,95,66,28,30.59,30.25,15,2,15,0.00
2013-1-19,64.8,45.5,31.3,37.6,32.2,25.4,95,63,35,30.25,30.08,21,3,21,0.00
2013-1-20,54.3,39.7,27.1,35.8,23.5,16.3,91,56,26,30.34,30.21,10,2,10,0.00
2013-1-21,33.8,25.2,18.4,17.5,14.7,12.4,79,65,49,30.44,30.33,18,4,18,0.00
2013-1-22,32.9,25.5,17.5,19.0,16.1,13.1,85,68,53,30.47,30.34,10,2,10,0.00
2013-1-23,58.7,36.5,20.2,42.3,28.3,17.2,91,73,52,30.37,30.21,12,2,12,0.00
2013-1-24,34.7,29.4,23.6,25.6,16.2,10.0,71,58,47,30.47,30.23,20,6,20,0.00
2013-1-25,49.3,34.3,26.0,31.3,26.6,18.3,94,75,45,30.33,30.19,13,2,13,0.00
2013-1-26,56.9,41.5,26.5,31.5,26.3,23.9,93,60,29,30.37,30.22,18,3,18,0.00
2013-1-27,54.9,46.1,39.2,53.5,42.2,27.7,97,87,51,30.22,29.97,21,6,21,0.04
2013-1-28,73.0,63.4,54.8,61.5,58.1,53.4,97,84,62,30.00,29.83,28,4,28,0.00
2013-1-29,67.4,59.2,49.0,61.8,56.7,48.1,98,92,81,29.84,29.46,21,4,21,1.32
2013-1-30,48.9,33.3,26.0,48.3,30.1,20.0,98,88,78,30.08,29.44,29,6,29,0.01
2013-1-31,41.8,24.9,12.3,29.9,19.5,5.1,96,80,57,30.51,30.06,28,4,28,0.00
2013-2-1,32.9,21.2,7.4,17.8,9.7,2.9,86,62,43,30.58,30.30,16,3,16,0.00
2013-2-2,51.0,35.0,22.5,35.9,26.8,16.7,94,73,53,30.33,30.20,20,2,20,0.01
2013-2-3,50.5,40.3,30.3,31.8,27.2,22.0,94,62,34,30.32,30.05,23,4,23,0.00
2013-2-4,60.7,46.6,31.1,45.0,34.3,25.3,86,63,45,30.05,29.86,18,3,18,0.01
2013-2-5,63.6,40.9,24.6,40.1,31.0,23.1,98,73,34,30.15,29.97,16,2,16,0.00
2013-2-6,57.2,44.9,30.9,39.5,34.2,27.1,88,67,46,30.22,30.05,19,4,19,0.00
2013-2-7,56.4,47.2,41.0,51.2,43.5,37.4,96,87,74,30.12,29.91,19,4,19,0.51
2013-2-8,48.0,37.4,31.6,38.9,32.0,28.5,94,82,59,30.37,30.12,19,5,19,0.00
2013-2-9,40.1,34.7,31.0,35.7,31.2,28.4,96,87,70,30.32,29.97,22,6,22,0.15
2013-2-10,62.1,48.2,37.0,54.2,37.7,26.0,99,72,33,30.03,29.67,32,7,32,0.31
2013-2-11,50.9,37.2,25.7,31.3,26.7,22.9,93,68,37,30.22,30.03,13,2,15,0.00
2013-2-12,45.3,35.1,24.1,34.1,28.7,22.3,97,79,53,30.23,29.98,15,1,15,0.03
2013-2-13,47.9,36.8,29.8,37.6,32.8,27.8,97,86,60,30.02,29.95,16,2,16,0.23
2013-2-14,55.1,41.0,25.9,37.1,30.9,24.3,97,70,41,30.18,29.98,16,2,16,0.01
2013-2-15,42.0,34.0,20.3,31.3,20.9,12.7,84,60,35,30.34,30.18,17,4,17,0.00
2013-2-16,36.9,29.0,19.2,24.0,19.9,15.4,90,70,46,30.39,30.22,15,2,15,0.00
2013-2-17,60.5,44.6,29.0,33.4,26.9,20.3,72,51,33,30.22,29.89,20,4,20,0.00
2013-2-18,54.2,45.8,31.0,50.1,39.0,24.8,96,78,65,30.10,29.60,24,6,24,0.16
2013-2-19,42.7,30.9,20.4,24.8,18.7,13.4,85,63,33,30.38,30.10,21,4,21,0.00
2013-2-20,34.3,28.6,21.9,15.1,12.9,10.4,74,52,38,30.41,30.22,15,3,15,0.00
2013-2-21,32.0,29.2,27.1,31.2,25.9,14.3,97,88,51,30.22,29.80,23,6,23,0.03
2013-2-22,32.9,26.9,19.0,32.1,23.5,16.9,97,87,72,30.18,29.89,21,2,21,0.16
2013-2-23,41.1,26.9,15.8,26.1,20.5,13.9,96,79,51,30.18,30.05,12,1,12,0.17
2013-2-24,52.2,37.7,21.1,36.2,28.6,19.1,94,72,50,30.12,29.97,18,4,18,0.06
2013-2-25,46.6,38.8,34.7,35.4,30.2,-99.9,93,73,48,29.98,29.42,33,7,33,0.38
2013-2-26,35.4,32.6,31.7,33.3,31.4,30.3,97,96,91,29.88,29.37,24,4,25,0.13
2013-2-27,33.2,31.8,30.4,31.4,29.4,27.7,96,91,84,30.08,29.61,22,4,22,0.01
2013-2-28,32.2,30.2,27.5,28.2,26.5,24.7,91,86,82,30.24,30.07,18,4,18,0.00
2013-3-1,29.4,28.3,26.8,26.8,25.4,24.0,92,89,83,30.31,30.20,14,4,14,0.00
2013-3-2,32.6,26.0,18.0,24.6,20.4,15.5,91,80,64,30.40,30.29,18,4,18,0.01
2013-3-3,50.9,35.7,17.2,28.5,24.2,15.0,95,66,40,30.30,29.92,20,4,20,0.00
2013-3-4,61.7,47.2,37.0,46.1,37.7,28.2,95,70,52,29.92,29.67,21,6,21,0.00
2013-3-5,45.7,36.2,29.2,42.9,27.1,21.0,94,71,51,30.33,29.83,29,9,29,0.08
2013-3-6,44.7,33.1,25.2,26.7,22.8,18.2,88,67,45,30.46,30.32,21,4,21,0.00
2013-3-7,58.2,43.5,30.7,33.0,28.6,24.1,79,58,31,30.38,30.22,15,4,15,0.00
2013-3-8,56.2,45.5,34.3,38.9,34.4,30.6,86,67,47,30.35,30.13,19,6,19,0.01
2013-3-9,70.2,55.4,43.0,55.5,45.4,37.3,97,71,41,30.14,29.74,25,6,25,0.15
2013-3-10,56.2,47.3,31.6,55.4,45.7,30.1,98,94,80,29.90,29.65,21,4,21,1.36
2013-3-11,42.6,32.1,27.1,33.2,27.2,24.1,94,83,55,30.10,29.88,20,4,20,0.04
2013-3-12,53.2,37.6,23.6,32.1,26.2,21.7,97,68,36,30.36,30.09,20,4,22,0.00
2013-3-13,47.9,35.3,26.9,28.2,24.1,20.4,88,65,40,30.51,30.36,16,3,16,0.00
2013-3-14,71.5,48.2,26.4,42.5,32.8,23.2,91,60,32,30.44,30.14,19,3,19,0.00
2013-3-15,81.8,59.1,38.1,49.7,42.9,36.3,97,62,27,30.15,29.77,20,3,20,0.00
2013-3-16,65.1,56.0,42.7,50.3,44.1,37.2,82,65,50,29.93,29.74,18,5,18,0.00
2013-3-17,42.6,39.2,36.6,39.7,37.7,34.7,98,94,81,29.99,29.75,21,5,21,0.75
2013-3-18,51.9,41.8,30.6,41.3,37.1,28.1,99,85,52,30.09,29.75,20,4,20,0.00
2013-3-19,48.3,36.7,24.7,31.1,25.2,17.2,95,66,35,30.31,30.08,12,1,12,0.01
2013-3-20,44.1,33.6,24.2,32.2,19.9,10.7,97,62,27,30.40,30.20,22,5,22,0.00
2013-3-21,36.2,28.9,21.4,28.8,21.8,13.4,96,77,43,30.20,29.97,15,3,15,0.00
2013-3-22,36.9,33.1,29.2,34.5,31.8,28.2,97,95,90,30.03,29.95,14,3,14,0.47
2013-3-23,40.2,37.1,33.7,39.3,35.5,32.7,97,94,84,30.03,29.78,12,2,12,0.07
2013-3-24,40.4,33.4,27.1,39.9,32.0,23.7,98,94,87,30.12,29.62,27,6,27,0.14
2013-3-25,33.7,27.3,22.7,28.5,23.4,19.6,91,85,76,30.37,30.09,22,5,22,0.00
2013-3-26,40.6,30.7,21.3,29.9,25.1,18.8,95,81,57,30.48,30.37,15,3,15,0.03
2013-3-27,51.4,37.3,21.2,32.5,26.4,19.7,95,68,41,30.43,30.27,15,3,15,0.15
2013-3-28,68.2,53.6,42.9,45.2,39.0,32.1,75,58,41,30.31,30.15,16,3,16,0.00
2013-3-29,66.8,55.0,47.1,55.3,48.6,40.9,98,80,59,30.22,30.13,12,1,12,0.16
2013-3-30,66.6,54.1,46.3,56.4,49.7,44.3,96,86,68,30.16,29.84,21,4,21,0.17
2013-3-31,67.2,53.6,42.0,51.1,43.5,39.1,99,73,37,30.00,29.87,20,3,20,0.36
2013-4-1,55.3,44.6,34.7,41.8,35.8,29.5,97,72,55,30.25,29.98,15,4,15,0.01
2013-4-2,40.4,37.2,33.3,32.9,30.7,27.9,89,77,64,30.34,30.22,11,2,11,0.10
2013-4-3,52.8,41.1,28.4,32.7,26.9,22.4,89,60,33,30.37,30.23,20,3,20,0.00
2013-4-4,55.4,45.4,32.4,34.9,31.0,26.9,87,58,39,30.24,30.10,14,2,14,0.00
2013-4-5,70.7,49.8,27.8,44.3,35.3,26.3,97,63,30,30.24,30.03,11,1,11,0.00
2013-4-6,73.8,60.3,50.0,48.1,42.9,36.5,80,54,36,30.03,29.78,25,4,25,0.00
2013-4-7,77.0,62.0,44.0,60.0,51.8,42.4,98,72,43,29.93,29.75,18,3,18,0.00
2013-4-8,75.0,65.0,57.6,61.7,57.7,53.8,88,78,60,29.82,29.70,20,5,20,0.00
2013-4-9,75.8,67.1,60.9,64.1,59.3,55.4,86,77,58,29.83,29.72,19,5,19,0.00
2013-4-10,69.9,55.9,38.8,64.4,52.6,37.8,96,89,77,29.83,29.66,20,3,20,0.65
2013-4-11,48.9,39.3,33.5,38.9,34.2,31.2,97,83,58,29.86,29.77,19,4,19,0.01
2013-4-12,53.9,41.6,29.8,38.6,33.0,28.3,96,73,51,30.09,29.84,20,3,20,0.00
2013-4-13,68.3,50.8,32.2,48.7,39.2,30.9,98,69,40,30.12,29.86,16,3,16,0.00
2013-4-14,78.2,64.8,51.6,58.2,49.0,42.3,89,60,28,29.87,29.53,27,6,27,0.04
2013-4-15,79.0,64.3,54.0,66.6,58.5,49.1,94,82,59,29.85,29.69,15,3,15,0.00
2013-4-16,64.3,52.9,48.5,59.0,50.9,47.1,98,93,79,30.05,29.86,15,4,15,0.02
2013-4-17,81.4,68.9,49.4,69.5,62.1,48.3,99,81,59,30.02,29.64,27,5,27,0.00
2013-4-18,72.8,51.8,37.9,66.1,48.1,31.3,99,87,74,29.94,29.54,25,5,25,1.86
2013-4-19,53.5,42.0,33.0,36.1,30.2,25.6,89,65,40,30.15,29.94,25,5,25,0.00
2013-4-20,64.9,48.2,29.5,43.9,35.6,28.0,97,66,36,30.28,30.15,9,1,10,0.00
2013-4-21,66.2,56.5,47.2,44.4,40.6,37.6,80,57,37,30.33,30.17,19,5,19,0.00
2013-4-22,68.5,57.1,43.3,49.0,41.1,37.0,82,57,33,30.24,29.94,19,4,19,0.00
2013-4-23,58.9,48.3,36.1,54.1,44.3,34.8,97,87,62,30.12,29.87,17,5,17,0.54
2013-4-24,53.5,41.3,31.6,37.3,33.2,28.9,96,76,43,30.36,30.11,18,4,18,0.00
2013-4-25,68.6,49.2,28.3,47.5,36.1,27.1,98,66,29,30.43,30.27,13,2,13,0.00
2013-4-26,56.2,48.7,45.8,46.2,44.3,38.8,97,86,52,30.36,30.20,18,5,18,1.28
2013-4-27,54.9,50.2,46.3,52.6,49.1,45.5,98,96,91,30.22,30.01,19,3,19,0.10
2013-4-28,70.3,56.1,48.1,57.1,50.1,46.7,98,82,45,30.06,29.90,15,2,15,0.00
2013-4-29,84.9,66.9,46.0,65.5,55.3,45.0,99,71,33,29.94,29.76,14,2,14,0.00
2013-4-30,81.0,69.9,55.7,61.5,54.2,45.7,95,61,33,29.88,29.79,21,3,21,0.00
2013-5-1,80.8,67.1,52.8,64.8,58.4,50.0,95,75,51,30.07,29.88,17,3,17,0.00
2013-5-2,58.2,48.0,34.9,57.8,46.0,33.6,99,93,85,30.24,30.04,20,6,20,0.23
2013-5-3,35.8,33.4,32.4,35.0,32.6,31.6,98,97,95,30.22,29.96,18,4,18,0.72
2013-5-4,44.6,38.2,32.6,40.2,35.6,31.9,98,91,77,30.06,29.91,10,1,10,0.26
2013-5-5,57.4,47.3,34.2,51.2,43.6,33.2,98,87,77,30.11,30.02,16,3,16,0.00
2013-5-6,67.2,56.6,50.6,57.7,52.3,49.0,97,86,65,30.08,30.00,17,5,17,0.00
2013-5-7,76.7,61.0,43.0,59.6,52.0,42.0,100,76,45,30.09,29.99,11,1,11,0.00
2013-5-8,74.0,61.9,48.1,62.5,55.4,47.3,100,81,53,30.08,29.93,11,1,11,0.02
2013-5-9,75.5,64.8,56.7,64.3,59.3,55.1,98,83,61,30.00,29.87,15,2,15,1.31
2013-5-10,66.8,60.1,50.1,61.7,56.6,47.9,99,89,69,30.06,29.86,14,3,14,0.02
2013-5-11,70.6,56.2,43.0,57.4,46.0,35.6,99,72,37,30.22,30.05,21,4,21,0.01
2013-5-12,65.9,51.2,32.8,45.1,37.7,31.0,98,65,32,30.32,30.19,10,1,13,0.00
2013-5-13,78.9,60.8,42.6,58.2,48.3,38.9,96,68,39,30.24,30.05,16,2,16,0.00
2013-5-14,88.3,70.8,51.5,62.4,53.6,48.9,97,61,29,30.05,29.92,21,2,21,0.00
2013-5-15,82.3,67.3,54.6,70.0,60.6,52.4,97,80,61,29.99,29.88,17,2,17,0.11
2013-5-16,65.5,62.2,60.4,62.4,61.0,59.6,98,96,87,29.91,29.86,14,2,14,0.12
2013-5-17,79.0,67.6,60.2,68.3,62.6,59.9,100,86,60,29.95,29.87,8,1,8,0.00
2013-5-18,82.0,71.2,61.6,74.6,68.1,60.7,99,91,75,29.95,29.82,15,3,15,0.00
2013-5-19,84.9,75.6,68.3,73.1,69.0,65.2,99,82,52,29.84,29.65,11,4,24,0.00
2013-5-20,74.9,68.4,61.5,70.0,64.6,58.7,95,88,68,29.84,29.68,20,3,22,0.75
2013-5-21,69.5,62.4,57.4,63.8,60.1,55.7,99,92,81,29.86,29.59,7,2,20,0.00
2013-5-22,73.3,62.7,51.4,60.7,56.4,50.8,99,82,60,29.95,29.77,5,2,17,0.00
2013-5-23,73.4,61.1,48.9,61.7,55.0,48.1,99,82,61,30.20,29.95,12,2,16,0.00
2013-5-24,72.8,61.1,50.1,54.2,49.7,45.1,97,69,39,30.35,30.20,15,3,15,0.00
2013-5-25,79.3,66.2,52.7,66.6,56.3,45.1,85,71,59,30.28,30.08,16,3,16,0.00
2013-5-26,84.8,72.1,60.0,70.7,64.3,58.0,94,77,57,30.14,29.97,16,3,16,0.00
2013-5-27,82.8,72.8,63.6,71.6,66.0,61.2,94,80,64,29.99,29.78,19,4,19,0.00
2013-5-28,81.3,73.3,68.3,71.0,66.3,63.3,90,79,65,29.88,29.75,19,4,19,0.00
2013-5-29,79.7,73.2,65.6,68.2,65.4,62.6,92,77,64,29.90,29.75,23,4,23,0.00
2013-5-30,81.8,70.0,61.1,69.7,65.0,60.1,99,85,65,29.86,29.72,28,4,28,1.57
2013-5-31,83.0,72.5,64.5,74.2,68.9,62.6,99,89,73,29.83,29.67,17,4,17,0.33
2013-6-1,76.0,66.6,56.9,69.0,62.8,54.6,99,89,68,29.97,29.69,28,2,28,1.26
2013-6-2,62.9,58.1,52.3,58.0,55.2,51.2,99,90,79,30.07,29.96,12,2,12,0.00
2013-6-3,75.5,62.2,47.6,62.9,55.5,46.2,99,80,55,30.10,29.94,10,1,10,0.00
2013-6-4,74.5,65.2,57.2,65.6,60.1,55.0,95,84,70,30.03,29.92,13,2,13,0.00
2013-6-5,76.5,65.0,58.1,68.9,62.3,57.3,99,91,73,30.00,29.84,11,1,11,0.02
2013-6-6,70.5,63.3,55.3,65.6,60.1,53.5,99,90,76,29.94,29.88,10,1,10,0.00
2013-6-7,74.1,62.6,51.5,62.6,55.8,50.7,99,80,54,29.99,29.91,14,2,14,0.01
2013-6-8,79.8,64.7,46.8,63.9,56.6,46.0,100,78,48,29.98,29.86,11,1,11,0.00
2013-6-9,79.0,67.2,60.2,69.0,61.3,57.7,96,83,56,29.92,29.82,15,1,15,0.18
2013-6-10,89.0,73.0,56.6,75.1,66.1,55.9,99,81,58,29.91,29.82,12,1,12,0.00
2013-6-11,93.1,78.7,64.3,76.0,68.7,63.7,100,75,42,29.97,29.88,13,2,13,0.00
2013-6-12,90.3,79.6,66.8,75.6,70.2,65.4,99,75,53,29.93,29.83,21,3,21,0.00
2013-6-13,85.9,76.3,66.5,73.6,68.0,60.4,90,76,61,29.99,29.87,13,2,13,0.00
2013-6-14,86.5,73.9,60.5,74.8,66.7,59.6,99,80,59,30.04,29.93,14,2,14,0.00
2013-6-15,77.3,70.4,66.6,73.1,66.8,63.3,98,89,72,30.05,29.91,14,1,14,0.09
2013-6-16,89.0,75.1,66.3,76.5,70.0,65.2,99,86,63,30.00,29.88,12,2,12,0.11
2013-6-17,73.3,68.9,64.1,70.8,67.2,63.1,98,95,89,29.97,29.83,17,1,17,0.09
2013-6-18,86.1,70.4,55.9,71.9,63.7,55.1,100,81,55,30.03,29.92,16,1,16,0.00
2013-6-19,86.5,73.1,57.6,72.5,65.0,57.0,100,78,51,30.05,29.96,8,1,9,0.00
2013-6-20,87.0,75.7,61.6,72.9,67.6,61.0,99,78,54,30.07,29.98,15,2,15,0.00
2013-6-21,90.7,80.2,69.9,77.4,72.2,67.6,94,78,58,30.07,29.96,15,2,15,0.00
2013-6-22,88.8,79.8,71.2,76.5,72.6,68.3,97,80,59,30.05,29.92,12,2,12,0.00
2013-6-23,90.5,79.3,68.3,76.2,71.0,66.7,96,77,54,30.00,29.89,12,2,12,0.00
2013-6-24,91.3,80.8,69.7,75.8,71.0,67.7,96,74,51,30.04,29.91,13,2,13,0.00
2013-6-25,89.9,79.7,67.7,75.3,70.0,65.9,97,74,53,29.94,29.80,16,2,16,0.00
2013-6-26,94.0,82.5,72.2,78.6,73.3,67.6,93,75,55,29.86,29.79,13,2,13,0.00
2013-6-27,96.2,82.6,68.5,81.3,75.8,67.6,99,82,54,29.93,29.80,12,1,12,0.00
2013-6-28,87.5,77.3,66.6,77.1,69.0,61.2,99,78,51,29.89,29.77,33,3,33,0.58
2013-6-29,83.0,72.3,58.6,65.3,59.5,55.1,98,67,41,29.83,29.75,23,4,23,0.00
2013-6-30,76.9,68.3,61.5,64.7,61.1,58.9,94,79,59,29.95,29.80,19,4,19,0.00
2013-7-1,79.5,68.3,57.4,62.8,59.2,53.5,97,75,50,30.02,29.94,16,3,16,0.00
2013-7-2,80.3,65.6,52.1,60.5,55.3,50.4,97,73,42,30.08,30.00,23,2,23,0.00
2013-7-3,85.6,68.4,51.6,64.1,57.3,50.5,98,72,38,30.12,30.00,11,1,11,0.00
2013-7-4,86.6,70.0,56.2,65.4,59.2,54.3,97,72,39,30.07,29.97,19,1,19,0.49
2013-7-5,88.3,72.0,56.0,66.2,61.3,55.1,99,73,40,30.05,29.95,9,1,9,0.00
2013-7-6,89.6,76.4,63.7,69.3,64.6,60.8,95,70,39,30.02,29.92,13,1,13,0.00
2013-7-7,91.9,77.9,64.3,71.8,65.5,61.5,97,69,37,30.04,29.96,12,2,12,0.00
2013-7-8,82.7,70.5,67.0,73.6,67.0,64.6,96,89,72,30.08,30.02,8,0,8,0.00
2013-7-9,95.4,81.8,68.0,75.1,70.8,66.8,98,72,44,30.05,29.92,12,1,12,0.00
2013-7-10,95.6,80.5,71.5,76.0,71.6,67.2,95,77,40,30.00,29.88,10,1,10,0.01
2013-7-11,91.5,80.2,70.7,73.7,67.1,58.8,96,68,35,30.00,29.93,11,2,11,0.00
2013-7-12,89.3,74.6,62.0,63.2,59.1,52.2,88,62,29,30.07,29.97,16,2,16,0.00
2013-7-13,86.0,71.7,56.2,65.2,59.8,53.9,96,69,41,30.07,29.95,9,1,9,0.00
2013-7-14,87.5,74.2,59.0,64.5,60.8,57.0,96,66,38,30.08,29.99,14,2,14,0.00
2013-7-15,87.5,75.9,68.0,75.6,68.7,63.3,95,79,52,30.17,30.07,13,2,13,0.05
2013-7-16,91.1,77.1,69.1,76.5,71.4,68.1,99,84,50,30.26,30.16,11,1,11,0.04
2013-7-17,92.6,80.1,67.2,75.3,69.9,66.1,99,74,45,30.31,30.16,13,1,13,0.00
2013-7-18,96.3,82.1,66.6,72.7,68.3,63.9,97,67,37,30.20,29.99,10,1,10,0.00
2013-7-19,95.4,79.2,67.5,72.9,69.1,65.7,97,74,43,30.01,29.89,10,1,10,0.00
2013-7-20,94.7,77.6,66.0,74.6,68.9,64.8,98,77,47,29.95,29.83,16,2,16,0.00
2013-7-21,83.3,74.8,69.3,73.7,71.0,68.4,98,89,69,29.92,29.82,7,0,7,0.00
2013-7-22,89.2,77.0,66.7,72.7,69.4,64.9,98,79,51,29.91,29.81,19,2,19,0.00
2013-7-23,96.6,81.0,70.3,78.4,72.5,67.3,98,78,53,29.86,29.74,20,2,20,0.01
2013-7-24,86.3,76.0,68.5,71.3,67.7,60.3,96,77,47,30.00,29.84,13,2,13,0.00
2013-7-25,86.5,73.2,57.5,65.8,62.0,55.8,97,71,46,30.10,30.00,10,1,10,0.00
2013-7-26,69.3,67.8,64.0,68.4,65.8,62.7,98,93,82,30.05,29.98,8,0,8,1.44
2013-7-27,77.3,68.6,60.6,65.2,62.2,58.4,99,82,55,30.05,29.97,11,2,11,0.01
2013-7-28,73.0,66.1,59.0,65.8,62.0,57.4,98,87,73,30.07,29.99,9,0,9,0.00
2013-7-29,81.1,72.4,64.4,74.1,68.3,63.2,97,88,76,30.11,30.00,14,2,14,0.10
2013-7-30,80.5,74.2,69.5,76.7,72.8,69.2,100,96,87,30.05,29.96,14,1,14,1.67
2013-7-31,85.7,76.4,68.7,76.8,72.0,66.4,100,87,64,30.05,29.97,14,2,14,0.00
2013-8-1,68.7,66.0,63.4,67.2,64.8,62.5,98,96,95,30.06,30.03,3,0,3,0.00
2013-8-2,86.1,75.1,66.5,77.3,70.6,65.2,96,86,74,30.00,29.85,5,2,14,0.00
2013-8-3,85.8,75.6,67.7,75.0,72.0,67.0,100,89,67,30.08,29.86,7,1,22,1.76
2013-8-4,73.4,71.8,70.0,73.1,71.6,69.7,100,99,97,30.15,30.02,12,1,12,1.13
2013-8-5,86.1,74.2,70.0,81.2,73.3,69.8,100,97,81,30.05,29.83,14,2,14,0.89
2013-8-6,80.3,73.7,69.6,78.1,73.1,69.6,100,98,92,29.93,29.80,12,2,12,0.35
2013-8-7,83.2,75.1,69.7,77.5,73.8,69.7,100,96,81,29.96,29.79,17,1,17,0.43
2013-8-8,84.2,75.6,70.0,77.2,73.1,70.0,100,93,70,29.97,29.84,11,1,11,0.52
2013-8-9,81.3,75.0,70.9,74.6,72.3,69.9,100,92,75,30.03,29.91,11,1,11,0.00
2013-8-10,81.9,73.6,66.5,71.7,68.9,65.9,99,86,65,30.12,30.02,15,2,15,0.02
2013-8-11,82.0,73.8,66.5,76.2,70.8,65.9,99,91,80,30.10,30.01,11,1,11,0.00
2013-8-12,80.5,74.0,69.6,77.4,72.7,68.9,100,96,79,30.04,29.93,18,1,18,0.92
2013-8-13,81.2,72.0,64.3,72.5,67.5,62.3,100,87,65,30.07,29.97,11,1,11,0.00
2013-8-14,75.6,67.2,58.0,63.5,59.6,55.7,96,79,55,30.16,30.07,14,2,14,0.00
2013-8-15,74.2,63.6,51.5,61.1,56.4,50.4,98,79,57,30.16,30.05,9,1,9,0.00
2013-8-16,73.1,63.6,55.9,62.3,58.3,54.7,97,84,64,30.15,30.08,10,1,10,0.00
2013-8-17,77.7,65.9,55.0,65.8,60.4,53.9,98,84,62,30.18,30.07,12,1,12,0.00
2013-8-18,81.0,69.5,58.7,69.0,63.7,58.1,100,83,60,30.16,30.06,11,1,11,0.00
2013-8-19,84.2,71.0,59.1,71.5,65.3,58.5,100,84,56,30.13,30.01,7,0,7,0.00
2013-8-20,84.0,71.9,60.1,71.9,65.7,59.5,100,83,57,30.10,30.02,8,1,8,0.00
2013-8-21,88.5,74.3,61.0,75.6,68.1,60.4,100,83,56,30.12,30.03,8,1,8,0.00
2013-8-22,89.8,76.1,63.9,75.1,69.7,63.3,100,83,50,30.12,30.01,7,0,7,0.00
2013-8-23,88.2,76.2,64.6,77.1,70.7,64.1,100,85,60,30.08,30.00,8,1,8,0.00
2013-8-24,87.2,76.2,67.3,76.0,70.7,66.8,100,85,58,30.16,30.05,12,1,12,0.00
2013-8-25,89.1,77.0,65.8,76.6,70.7,65.2,99,83,54,30.22,30.13,9,1,9,0.00
2013-8-26,89.5,78.0,68.9,77.8,72.6,68.3,100,85,59,30.20,30.08,8,1,8,0.00
2013-8-27,89.0,77.3,66.6,74.6,70.2,66.0,100,81,51,30.11,30.00,9,1,9,0.00
2013-8-28,90.4,76.9,63.8,77.8,70.5,63.2,100,83,58,30.07,30.00,10,0,10,0.00
2013-8-29,93.5,79.2,65.4,80.4,73.0,64.8,100,83,56,30.06,29.96,5,0,5,0.00
2013-8-30,93.9,81.0,70.1,79.3,74.2,69.8,100,82,53,29.99,29.85,11,0,11,0.00
2013-8-31,95.2,80.4,68.3,78.2,73.0,67.8,100,81,51,29.89,29.77,11,1,11,0.00
2013-9-1,85.5,75.5,68.7,75.3,71.4,67.5,100,88,67,29.90,29.76,17,1,17,0.00
2013-9-2,83.2,73.0,61.4,69.8,65.6,59.3,99,80,54,29.99,29.87,11,2,11,0.00
2013-9-3,85.0,69.5,54.6,68.3,60.7,53.8,100,77,45,30.08,29.98,8,1,8,0.00
2013-9-4,85.6,70.0,53.8,67.8,61.2,52.9,99,77,47,30.16,30.06,7,0,7,0.00
2013-9-5,85.3,70.4,55.9,68.0,61.7,55.1,99,77,45,30.20,30.11,9,1,9,0.00
2013-9-6,86.8,70.9,57.9,68.7,63.2,57.0,99,80,45,30.16,30.03,8,1,8,0.00
2013-9-7,92.5,74.4,59.7,72.8,66.2,59.0,100,79,45,30.06,29.93,9,1,9,0.00
2013-9-8,90.3,75.2,63.4,76.1,70.0,62.8,99,86,58,29.96,29.87,8,0,8,0.00
2013-9-9,94.1,78.5,65.5,74.8,69.3,64.9,100,77,44,29.99,29.91,7,1,10,0.00
2013-9-10,92.8,76.9,62.9,72.7,66.7,62.0,100,75,38,30.11,29.98,7,1,12,0.00
2013-9-11,93.0,76.2,63.3,75.6,68.7,62.4,99,81,47,30.14,30.03,14,0,14,0.04
2013-9-12,88.8,75.5,65.4,73.9,68.8,64.8,100,82,57,30.07,29.98,14,1,14,0.00
2013-9-13,76.3,66.2,52.4,65.1,54.5,50.4,93,68,44,30.11,30.02,11,2,11,0.00
2013-9-14,76.7,62.4,47.7,56.9,52.2,45.3,94,72,45,30.14,30.02,7,1,14,0.00
2013-9-15,86.8,69.5,54.6,69.2,58.7,50.3,87,70,48,30.08,30.01,11,1,11,0.00
2013-9-16,73.8,67.7,64.1,69.2,65.1,61.0,97,92,84,30.19,30.06,10,1,10,0.15
2013-9-17,80.7,70.1,62.5,70.9,66.1,61.6,99,88,62,30.18,30.02,12,2,12,0.74
2013-9-18,82.7,72.8,67.5,73.0,69.4,66.0,97,90,69,30.04,29.93,12,2,12,0.07
2013-9-19,89.0,76.0,69.8,75.2,70.1,67.2,96,83,55,29.99,29.86,17,2,17,0.00
2013-9-20,71.7,65.2,56.2,70.5,62.8,52.9,99,92,76,29.96,29.88,15,2,15,2.12
2013-9-21,72.7,59.4,47.0,56.6,50.9,45.6,98,77,46,30.03,29.93,10,2,13,0.00
2013-9-22,74.7,58.3,42.8,57.6,50.3,41.7,99,78,46,30.03,29.91,10,1,10,0.00
2013-9-23,75.5,61.2,47.8,58.8,54.1,47.0,99,80,53,29.98,29.84,19,2,19,0.00
2013-9-24,77.8,66.0,55.0,62.5,58.9,53.1,96,80,56,29.93,29.82,13,1,13,0.01
2013-9-25,77.8,64.0,51.1,64.1,58.1,50.0,98,83,57,29.89,29.82,9,1,9,0.00
2013-9-26,80.6,66.8,55.1,65.9,60.8,54.3,99,83,55,29.99,29.87,10,2,13,0.00
2013-9-27,82.5,71.5,62.3,69.5,64.5,61.1,98,80,55,30.04,29.93,15,2,15,0.00
2013-9-28,78.2,68.4,61.9,69.6,65.2,61.3,98,90,74,30.03,29.91,15,3,15,0.60
2013-9-29,73.7,62.7,55.0,61.2,56.8,53.7,98,83,53,30.07,29.96,12,2,12,0.02
2013-9-30,76.0,66.3,54.5,67.2,63.2,53.4,100,90,69,29.97,29.87,11,2,11,0.00
2013-10-1,83.1,71.3,64.7,72.8,67.1,63.5,100,88,59,30.00,29.90,11,1,11,0.00
2013-10-2,79.7,69.5,62.2,74.4,68.0,61.8,100,95,79,30.03,29.92,11,1,11,1.05
2013-10-3,82.2,72.3,65.2,73.5,69.0,65.2,100,90,72,29.96,29.84,16,2,16,0.00
2013-10-4,82.9,73.9,67.9,72.6,69.0,64.7,100,86,67,29.93,29.85,16,2,16,0.01
2013-10-5,72.0,58.7,48.0,69.8,57.7,47.3,99,96,88,30.00,29.88,14,1,16,1.02
2013-10-6,58.4,50.5,41.1,48.4,45.5,40.6,99,84,63,30.02,29.93,21,2,21,0.00
2013-10-7,69.4,54.8,42.4,53.0,47.6,41.1,97,79,50,30.17,30.02,16,1,16,0.00
2013-10-8,70.3,55.3,42.6,54.9,49.1,41.7,99,82,55,30.21,30.10,15,1,15,0.00
2013-10-9,72.5,56.7,42.5,56.4,50.0,41.4,99,81,51,30.17,30.08,13,1,13,0.00
2013-10-10,74.0,60.0,47.8,61.7,54.4,47.3,99,84,54,30.14,29.97,11,1,11,0.00
2013-10-11,76.8,65.7,56.2,66.1,61.0,55.6,99,86,66,29.99,29.86,18,3,18,0.01
2013-10-12,70.7,61.8,51.3,62.8,58.0,49.2,98,88,67,30.20,29.91,19,2,19,0.35
2013-10-13,69.8,60.0,51.3,53.4,47.5,42.8,90,64,49,30.38,30.19,13,3,13,0.00
2013-10-14,64.4,58.7,50.6,60.9,52.4,42.9,96,80,63,30.30,30.01,13,2,13,0.02
2013-10-15,62.9,59.0,50.8,62.6,57.4,48.6,99,94,83,30.06,29.90,12,2,12,0.55
2013-10-16,58.7,50.1,41.6,48.7,44.6,39.1,94,82,65,30.13,30.02,13,2,13,0.00
2013-10-17,62.5,51.7,41.8,50.2,45.7,40.2,97,82,53,30.08,29.99,12,1,12,0.01
2013-10-18,58.6,46.6,37.4,50.8,43.3,36.4,98,89,70,30.12,30.02,14,2,14,0.24
2013-10-19,56.9,44.1,36.0,44.0,39.2,34.7,97,84,53,30.15,30.05,12,2,14,0.05
2013-10-20,67.8,50.2,35.7,49.4,41.4,34.9,98,76,40,30.07,29.93,18,1,18,0.00
2013-10-21,53.6,46.3,35.3,47.6,41.8,33.5,97,85,65,30.14,29.99,15,1,15,0.00
2013-10-22,63.4,47.0,32.5,48.5,39.8,31.2,98,78,52,30.13,29.95,17,2,17,0.00
2013-10-23,55.3,43.8,32.7,42.6,37.3,30.7,95,79,54,30.23,30.07,10,1,10,0.00
2013-10-24,49.8,42.1,31.2,40.0,34.4,28.2,93,76,48,30.48,30.14,17,2,17,0.00
2013-10-25,54.4,40.2,25.9,36.5,29.7,24.1,96,70,39,30.57,30.28,12,1,12,0.00
2013-10-26,64.2,49.4,36.4,54.2,43.3,32.5,91,80,67,30.28,30.11,12,1,12,0.00
2013-10-27,64.8,47.1,31.0,45.9,37.3,29.0,95,72,35,30.15,30.02,9,1,9,0.00
2013-10-28,66.2,51.7,37.5,58.4,48.0,36.0,99,88,64,30.22,30.08,13,1,13,0.00
2013-10-29,63.9,58.9,49.7,63.9,58.6,48.3,100,99,95,30.21,30.02,20,3,20,1.31
2013-10-30,66.3,63.7,60.7,65.9,63.6,60.4,100,100,97,30.06,29.83,22,3,22,0.54
2013-10-31,72.2,59.3,46.8,67.7,58.3,45.7,100,97,72,29.82,29.42,20,2,20,0.13
2013-11-1,64.1,50.0,39.1,53.0,44.4,38.8,100,83,51,30.00,29.72,26,1,26,0.01
2013-11-2,52.5,44.4,33.4,43.5,39.7,31.5,95,84,65,30.26,29.99,16,3,16,0.00
2013-11-3,57.5,44.7,29.8,44.3,37.5,28.8,99,78,57,30.31,30.10,20,3,20,0.00
2013-11-4,57.7,51.6,48.0,51.0,45.8,41.2,96,81,72,30.22,30.09,17,4,17,0.00
2013-11-5,58.7,54.8,52.1,58.7,54.6,50.9,100,99,96,30.21,29.99,20,5,20,0.70
2013-11-6,59.2,46.0,38.5,59.2,44.5,35.3,100,95,85,30.39,29.91,18,4,18,0.48
2013-11-7,57.9,41.5,28.4,44.4,34.7,26.8,97,79,47,30.49,30.38,16,1,16,0.01
2013-11-8,62.5,46.3,29.8,42.9,36.4,28.7,98,72,43,30.42,30.13,16,3,16,0.00
2013-11-9,65.1,50.8,39.6,47.2,41.7,37.8,94,73,48,30.30,30.14,9,1,13,0.00
2013-11-10,64.7,47.9,35.0,41.2,38.1,33.7,97,73,36,30.44,30.30,14,1,14,0.00
2013-11-11,61.8,50.0,37.9,53.2,44.9,35.7,94,83,68,30.47,30.21,23,2,23,0.01
2013-11-12,38.0,29.8,19.2,36.2,21.7,16.0,94,73,48,30.80,30.47,14,4,19,0.00
2013-11-13,48.5,31.5,15.3,24.3,18.8,13.1,93,64,31,30.78,30.40,12,2,12,0.00
2013-11-14,54.9,42.0,27.3,29.3,23.9,19.8,76,51,29,30.40,30.10,15,2,15,0.00
2013-11-15,56.1,47.7,41.3,49.3,41.9,29.1,95,81,53,30.11,29.91,17,3,17,0.02
2013-11-16,68.7,60.4,50.7,61.7,56.3,49.3,96,87,70,29.92,29.63,28,5,28,0.00
2013-11-17,73.8,64.9,48.9,64.8,47.6,24.6,91,57,30,30.05,29.50,28,5,31,0.00
2013-11-18,57.8,43.6,31.9,41.6,32.8,29.0,92,69,36,30.33,30.05,9,1,12,0.00
2013-11-19,54.7,44.3,32.5,35.1,30.2,23.7,91,61,33,30.34,30.15,16,4,17,0.00
2013-11-20,56.0,47.2,38.6,35.8,31.8,25.5,76,56,39,30.16,29.97,21,5,21,0.01
2013-11-21,52.7,49.2,46.4,49.4,46.0,35.2,98,90,52,30.27,30.05,14,2,14,1.07
2013-11-22,46.6,32.6,30.0,45.8,31.7,28.7,98,96,95,30.59,30.26,20,6,20,0.00
2013-11-23,38.1,29.9,18.6,29.9,22.5,12.5,95,75,59,30.76,30.59,13,5,20,0.00
2013-11-24,28.8,22.2,14.1,14.6,11.7,7.7,84,65,42,30.78,30.47,13,2,13,0.00
2013-11-25,34.9,30.7,27.6,30.6,23.8,12.3,92,76,52,30.47,30.24,12,2,12,0.03
2013-11-26,42.6,33.2,23.3,33.3,26.6,15.5,89,77,61,30.38,30.17,20,6,24,0.00
2013-11-27,33.6,23.4,16.6,16.9,14.3,11.5,87,69,45,30.49,30.38,21,3,21,0.00
2013-11-28,52.3,33.8,21.1,32.0,23.5,16.0,88,68,44,30.53,30.37,20,1,20,0.00
2013-11-29,52.9,37.2,21.8,33.7,28.2,19.6,94,72,46,30.58,30.40,14,2,14,0.00
2013-11-30,59.9,43.8,31.9,44.4,36.0,28.0,92,75,55,30.40,30.15,16,2,16,0.00
2013-12-1,55.2,45.3,34.0,50.7,43.0,32.5,98,92,84,30.19,29.92,8,0,8,0.00
2013-12-2,59.0,46.4,36.1,50.6,43.7,34.6,98,91,71,29.93,29.71,12,1,12,0.00
2013-12-3,59.9,49.2,35.8,56.2,47.6,34.5,99,94,79,29.73,29.61,15,3,15,0.00
2013-12-4,65.8,50.2,33.0,54.6,46.3,30.3,97,87,55,29.96,29.60,17,4,17,0.00
2013-12-5,32.8,23.6,18.6,30.2,20.4,16.9,93,88,78,30.39,29.95,18,5,18,0.00
2013-12-6,19.5,17.3,11.9,17.6,15.0,7.2,93,90,81,30.67,30.34,17,5,17,0.00
2013-12-7,20.9,14.0,5.2,13.1,7.3,1.0,84,75,59,30.76,30.44,10,3,13,0.00
2013-12-8,27.4,22.4,18.0,26.2,19.2,9.6,95,88,67,30.44,30.11,11,2,11,0.00
2013-12-9,27.5,22.5,19.1,26.3,19.2,14.7,95,87,73,30.42,30.23,15,3,15,0.00
2013-12-10,34.8,18.9,-1.0,20.2,12.7,-3.9,92,78,49,30.51,30.36,9,1,10,0.24
2013-12-11,32.6,19.4,7.0,24.9,13.2,3.3,93,78,57,30.73,30.40,11,2,13,0.03
2013-12-12,43.8,23.0,5.1,22.0,13.4,1.7,90,69,39,30.74,30.38,8,1,9,0.07
2013-12-13,33.7,31.0,21.6,32.6,27.9,16.1,97,88,73,30.38,29.94,14,3,15,0.56
2013-12-14,33.2,30.3,25.6,32.7,29.1,23.5,98,95,92,30.28,29.90,22,4,22,0.01
2013-12-15,46.7,29.9,12.0,36.3,25.5,9.8,95,84,65,30.31,30.16,11,1,11,0.40
2013-12-16,61.4,39.4,26.3,41.2,31.6,24.6,96,77,40,30.20,30.09,7,1,7,0.00
2013-12-17,50.2,34.5,24.8,36.9,28.8,22.4,96,81,52,30.38,30.17,17,1,17,0.00
2013-12-18,60.9,42.0,23.5,39.8,31.9,21.5,94,70,40,30.37,30.00,16,3,16,0.00
2013-12-19,55.9,51.0,43.9,52.4,46.2,37.8,91,84,78,30.00,29.77,18,4,18,0.00
2013-12-20,60.4,45.4,31.8,58.1,43.4,30.8,96,93,85,29.90,29.75,14,3,14,0.03
2013-12-21,35.9,33.9,31.8,35.3,33.1,30.8,98,97,96,29.86,29.56,18,2,18,1.23
2013-12-22,36.6,29.3,24.4,36.0,27.8,21.9,98,94,90,30.41,29.73,15,0,15,0.00
2013-12-23,26.7,20.7,15.7,22.0,17.3,13.0,91,87,76,30.67,30.41,0,0,0,0.00
2013-12-24,32.4,21.9,9.9,22.2,16.2,7.6,91,79,64,30.67,30.38,18,2,18,0.00
2013-12-25,40.2,29.7,22.0,34.4,25.8,20.3,93,85,77,30.45,30.36,12,1,12,0.00
2013-12-26,48.6,31.6,21.4,39.3,26.3,19.7,97,83,53,30.49,30.36,11,1,11,0.00
2013-12-27,57.7,34.9,21.5,38.2,27.1,19.8,96,77,40,30.49,30.37,11,1,11,0.00
2013-12-28,53.5,36.9,23.3,37.3,28.9,21.5,95,75,44,30.37,30.00,13,1,13,0.00
2013-12-29,41.5,27.7,19.1,37.3,23.5,13.9,90,84,79,30.34,29.99,20,5,20,0.00
2013-12-30,35.6,21.4,11.4,16.8,12.5,7.0,85,70,43,30.42,30.31,9,1,9,0.00
2013-12-31,53.7,34.2,15.3,30.8,22.5,12.8,94,66,36,30.48,30.25,13,2,13,0.00
2014-1-1,47.4,35.8,21.4,32.3,27.6,19.2,91,73,54,30.25,29.95,20,3,20,0.00
2014-1-2,21.4,13.3,3.1,19.4,9.4,-0.5,92,84,71,30.58,30.16,18,4,18,0.00